Flag for Germany Weather past 2 weeks in Göppingen, Baden-Württemberg, Germany

Now
82 °F

Passing clouds.


Feels Like: 81 °F
Forecast: 60 / 85 °F
Wind: 1 mph from South

Location: Stoetten

Current Time: Aug 3, 2015 at 7:30:12 PM

Latest Report: Aug 3, 2015 at 7:00 PM


Visibility: 47 mi

Pressure: 29.93 "Hg

Humidity: 39%

Dew point: 54 °F

Location of GöppingenLocation

Historic Weather in Göppingen — Graph

°F

Göppingen temperature yesterday

Maximum temperature yesterday: 75 °F (at 5:00 PM)
Minimum temperature yesterday: 56 °F (at 6:00 AM)
Average temperature yesterday: 66 °F

Past Weeks' High & Low Weather Summary

 TemperatureHumidityPressure
High89 °F (Jul 22, 2:00 PM)100% (Jul 23, 4:00 AM)30.12 "Hg (Jul 23, 4:00 AM)
Low46 °F (Jul 26, 5:00 AM)32% (Jul 31, 7:00 PM)29.67 "Hg (Jul 24, 7:00 PM)
Average64 °F66%29.92 "Hg
* Reported Jul 19 6:00 PM — Aug 3 6:00 PM, Göppingen, Weather by CustomWeather, © 2015

Note: Actual official high and low records may vary slightly from our data, if they occured in-between our weather recording intervals... More about our weather records

Advertising

Göppingen weather history for previous 24 hours

 ConditionsComfort  
Time TempWeatherWind HumidityBarometerVisibility
6:00 PM
Mon, Aug 3
82 °FPassing clouds.2 mph37%29.93 "Hg47 mi
5:00 PM81 °FPassing clouds.3 mph39%29.95 "Hg47 mi
4:00 PM82 °FPassing clouds.2 mph38%29.96 "Hg47 mi
3:00 PM79 °FPassing clouds.3 mph39%29.98 "Hg47 mi
2:00 PM78 °FPassing clouds.3 mph43%29.99 "Hg47 mi
1:00 PM76 °FSunny.N/A44%30.01 "Hg47 mi
12:00 PM74 °FSunny.6 mph47%30.03 "Hg47 mi
11:00 AM72 °FSunny.5 mph49%30.04 "Hg47 mi
10:00 AM70 °FSunny.5 mph51%30.04 "Hg47 mi
9:00 AM65 °FSunny.N/A60%30.06 "Hg47 mi
8:00 AM62 °FPassing clouds.5 mph65%30.06 "Hg47 mi
7:00 AM61 °FPassing clouds.6 mph66%30.06 "Hg47 mi
5:00 AM62 °FClear.5 mph62%30.05 "Hg43 mi
4:00 AM61 °FClear.3 mph65%30.06 "Hg37 mi
3:00 AM61 °FClear.3 mph67%30.06 "Hg31 mi
2:00 AM63 °FClear.5 mph64%30.06 "Hg31 mi
1:00 AM64 °FClear.3 mph61%30.06 "Hg34 mi
11:00 PM
Sun, Aug 2
66 °FClear.3 mph58%30.06 "Hg37 mi
10:00 PM67 °FClear.2 mph56%30.06 "Hg37 mi
9:00 PM69 °FPassing clouds.2 mph51%30.04 "Hg47 mi
8:00 PM72 °FSunny.3 mph48%30.03 "Hg47 mi
7:00 PM74 °FPartly sunny.2 mph46%30.02 "Hg47 mi
Weather by CustomWeather, © 2015

See weather overviewHow to use our weather pages